When you browse on this site, cookies collect data to enhance your experience and personalize the content and advertising you see.
Visit our Privacy Policy to learn more. By continuing to use the site, you agree to this use of cookies and data.
  • In Österreich
  • Länderverzeichnis
  • Für 7 Tage
  • Wassertemperatur
  • Wetterkarte
  • News
  • Widgets
  • user-avatar
    Anmelden

    Stündliche Wetter Sydney

    Heute, 22 Oktober, Dienstag

    Zeit Temperatur Niederschläge Wind Luftdruck Luftfeuchtigkeit
    00:00 +15°C° 0 mm 1 m/S 768 mmHg 72%
    01:00 +14°C° 0 mm 1 m/S 768 mmHg 74%
    02:00 +14°C° 0 mm 1 m/S 768 mmHg 75%
    03:00 +13°C° 0 mm 2 m/S 768 mmHg 77%
    04:00 +13°C° 0 mm 1 m/S 768 mmHg 77%
    05:00 +14°C° 0 mm 1 m/S 768 mmHg 71%
    06:00 +15°C° 0 mm 2 m/S 768 mmHg 65%
    07:00 +17°C° 0 mm 2 m/S 768 mmHg 60%
    08:00 +20°C° 0 mm 2 m/S 768 mmHg 49%
    09:00 +24°C° 0 mm 2 m/S 768 mmHg 38%
    10:00 +27°C° 0 mm 2 m/S 768 mmHg 28%
    11:00 +28°C° 0 mm 3 m/S 767 mmHg 26%
    12:00 +29°C° 0 mm 4 m/S 766 mmHg 25%
    13:00 +30°C° 0 mm 5 m/S 766 mmHg 24%
    14:00 +28°C° 0 mm 5 m/S 765 mmHg 30%
    15:00 +27°C° 0 mm 5 m/S 765 mmHg 35%
    16:00 +26°C° 0 mm 6 m/S 765 mmHg 40%
    17:00 +23°C° 0 mm 5 m/S 766 mmHg 50%
    18:00 +21°C° 0 mm 4 m/S 766 mmHg 60%
    19:00 +19°C° 0 mm 3 m/S 766 mmHg 70%
    20:00 +18°C° 0 mm 3 m/S 767 mmHg 74%
    21:00 +18°C° 0 mm 2 m/S 767 mmHg 79%
    22:00 +17°C° 0 mm 2 m/S 768 mmHg 83%
    23:00 +17°C° 0 mm 2 m/S 767 mmHg 85%

    Morgen, 23 Oktober, Mittwoch

    Zeit Temperatur Niederschläge Wind Luftdruck Luftfeuchtigkeit
    00:00 +16°C° 0 mm 2 m/S 767 mmHg 86%
    01:00 +16°C° 0 mm 2 m/S 767 mmHg 88%
    02:00 +16°C° 0 mm 2 m/S 767 mmHg 88%
    03:00 +15°C° 0 mm 2 m/S 766 mmHg 89%
    04:00 +15°C° 0 mm 2 m/S 766 mmHg 89%
    05:00 +16°C° 0 mm 2 m/S 766 mmHg 84%
    06:00 +17°C° 0 mm 2 m/S 767 mmHg 79%
    07:00 +19°C° 0 mm 1 m/S 767 mmHg 75%
    08:00 +21°C° 0 mm 2 m/S 766 mmHg 62%
    09:00 +25°C° 0 mm 3 m/S 766 mmHg 50%
    10:00 +28°C° 0 mm 3 m/S 766 mmHg 37%
    11:00 +29°C° 0 mm 4 m/S 765 mmHg 34%
    12:00 +32°C° 0 mm 5 m/S 764 mmHg 31%
    13:00 +33°C° 0 mm 5 m/S 763 mmHg 27%
    14:00 +33°C° 0 mm 5 m/S 763 mmHg 29%
    15:00 +32°C° 0 mm 5 m/S 762 mmHg 32%
    16:00 +30°C° 0 mm 5 m/S 762 mmHg 34%
    17:00 +28°C° 0 mm 5 m/S 762 mmHg 40%
    18:00 +26°C° 0 mm 5 m/S 762 mmHg 47%
    19:00 +23°C° 0 mm 5 m/S 763 mmHg 54%
    20:00 +23°C° 0 mm 4 m/S 763 mmHg 56%
    21:00 +22°C° 0 mm 3 m/S 763 mmHg 57%
    22:00 +21°C° 0 mm 2 m/S 763 mmHg 59%
    23:00 +20°C° 0 mm 2 m/S 763 mmHg 60%

    übermorgen, 24 Oktober, Donnerstag

    Zeit Temperatur Niederschläge Wind Luftdruck Luftfeuchtigkeit
    00:00 +19°C° 0 mm 2 m/S 763 mmHg 61%
    01:00 +19°C° 0 mm 2 m/S 762 mmHg 62%
    02:00 +18°C° 0 mm 2 m/S 762 mmHg 64%
    03:00 +18°C° 0 mm 2 m/S 762 mmHg 66%
    04:00 +18°C° 0 mm 3 m/S 762 mmHg 68%
    05:00 +19°C° 0 mm 2 m/S 762 mmHg 64%
    06:00 +20°C° 0 mm 2 m/S 763 mmHg 61%
    07:00 +21°C° 0 mm 2 m/S 763 mmHg 57%
    08:00 +25°C° 0 mm 2 m/S 763 mmHg 48%
    09:00 +28°C° 0 mm 2 m/S 763 mmHg 39%
    10:00 +31°C° 0 mm 2 m/S 763 mmHg 29%
    11:00 +32°C° 0 mm 2 m/S 762 mmHg 29%
    12:00 +34°C° 0 mm 2 m/S 762 mmHg 28%
    13:00 +34°C° 0 mm 3 m/S 761 mmHg 27%
    14:00 +33°C° 0 mm 3 m/S 761 mmHg 28%
    15:00 +33°C° 0 mm 3 m/S 761 mmHg 28%
    16:00 +32°C° 0 mm 4 m/S 760 mmHg 29%
    17:00 +30°C° 0 mm 4 m/S 760 mmHg 33%
    18:00 +28°C° 0 mm 4 m/S 761 mmHg 38%
    19:00 +27°C° 0 mm 4 m/S 761 mmHg 43%
    20:00 +26°C° 0 mm 4 m/S 761 mmHg 46%
    21:00 +25°C° 0 mm 4 m/S 761 mmHg 49%
    22:00 +24°C° 0 mm 3 m/S 761 mmHg 51%
    23:00 +22°C° 0 mm 3 m/S 760 mmHg 51%

    25 Oktober, Freitag

    Zeit Temperatur Niederschläge Wind Luftdruck Luftfeuchtigkeit
    00:00 +21°C° 0 mm 4 m/S 760 mmHg 50%
    01:00 +21°C° 0 mm 4 m/S 760 mmHg 50%
    02:00 +20°C° 0 mm 4 m/S 759 mmHg 50%
    03:00 +20°C° 0 mm 4 m/S 759 mmHg 50%
    04:00 +20°C° 0 mm 4 m/S 759 mmHg 50%
    05:00 +21°C° 0 mm 4 m/S 759 mmHg 46%
    06:00 +22°C° 0 mm 4 m/S 759 mmHg 42%
    07:00 +25°C° 0 mm 4 m/S 759 mmHg 39%
    08:00 +28°C° 0 mm 5 m/S 759 mmHg 32%
    09:00 +32°C° 0 mm 5 m/S 759 mmHg 26%
    10:00 +35°C° 0 mm 5 m/S 758 mmHg 19%
    11:00 +36°C° 0 mm 5 m/S 758 mmHg 18%
    12:00 +37°C° 0 mm 5 m/S 757 mmHg 18%
    13:00 +38°C° 0 mm 6 m/S 756 mmHg 17%
    14:00 +36°C° 0 mm 6 m/S 756 mmHg 19%
    15:00 +36°C° 0 mm 6 m/S 755 mmHg 21%
    16:00 +35°C° 0 mm 7 m/S 755 mmHg 23%
    17:00 +33°C° 0 mm 6 m/S 755 mmHg 27%
    18:00 +30°C° 0 mm 5 m/S 755 mmHg 31%
    19:00 +28°C° 0 mm 5 m/S 755 mmHg 35%
    20:00 +28°C° 0 mm 4 m/S 755 mmHg 35%
    21:00 +27°C° 0 mm 3 m/S 755 mmHg 36%
    22:00 +26°C° 0 mm 2 m/S 754 mmHg 36%
    23:00 +26°C° 0 mm 3 m/S 754 mmHg 36%

    26 Oktober, Samstag

    Zeit Temperatur Niederschläge Wind Luftdruck Luftfeuchtigkeit
    00:00 +26°C° 0 mm 4 m/S 753 mmHg 36%
    01:00 +25°C° 0 mm 5 m/S 753 mmHg 37%
    02:00 +25°C° 0 mm 5 m/S 752 mmHg 36%
    03:00 +25°C° 0 mm 5 m/S 752 mmHg 35%
    04:00 +24°C° 0 mm 6 m/S 751 mmHg 34%
    05:00 +26°C° 0 mm 6 m/S 752 mmHg 32%
    06:00 +27°C° 0 mm 7 m/S 752 mmHg 30%
    07:00 +28°C° 0 mm 7 m/S 752 mmHg 28%
    08:00 +31°C° 0 mm 8 m/S 752 mmHg 27%
    09:00 +33°C° 0 mm 8 m/S 752 mmHg 25%
    10:00 +35°C° 0 mm 9 m/S 751 mmHg 23%
    11:00 +34°C° 0 mm 8 m/S 751 mmHg 24%
    12:00 +34°C° 0 mm 8 m/S 751 mmHg 25%
    13:00 +33°C° 0 mm 8 m/S 751 mmHg 26%
    14:00 +33°C° 0 mm 8 m/S 751 mmHg 22%
    15:00 +33°C° 0 mm 8 m/S 751 mmHg 19%
    16:00 +32°C° 0 mm 7 m/S 751 mmHg 15%
    17:00 +29°C° 0 mm 8 m/S 752 mmHg 19%
    18:00 +26°C° 0 mm 8 m/S 753 mmHg 23%
    19:00 +22°C° 0 mm 8 m/S 755 mmHg 26%
    20:00 +21°C° 0 mm 8 m/S 756 mmHg 27%
    21:00 +20°C° 0 mm 7 m/S 757 mmHg 28%
    22:00 +17°C° 0 mm 7 m/S 758 mmHg 30%
    23:00 +16°C° 0 mm 6 m/S 758 mmHg 32%

    27 Oktober, Sonntag

    Zeit Temperatur Niederschläge Wind Luftdruck Luftfeuchtigkeit
    00:00 +16°C° 0 mm 6 m/S 758 mmHg 34%
    01:00 +15°C° 0 mm 6 m/S 758 mmHg 36%
    02:00 +14°C° 0 mm 6 m/S 759 mmHg 38%
    03:00 +14°C° 0 mm 6 m/S 759 mmHg 40%
    04:00 +13°C° 0 mm 6 m/S 760 mmHg 42%
    05:00 +14°C° 0 mm 5 m/S 760 mmHg 40%
    06:00 +14°C° 0 mm 5 m/S 760 mmHg 39%
    07:00 +15°C° 0 mm 4 m/S 761 mmHg 37%
    08:00 +18°C° 0 mm 4 m/S 761 mmHg 32%
    09:00 +20°C° 0 mm 4 m/S 761 mmHg 27%
    10:00 +22°C° 0 mm 4 m/S 761 mmHg 22%
    11:00 +22°C° 0 mm 4 m/S 761 mmHg 25%
    12:00 +22°C° 0 mm 5 m/S 761 mmHg 28%
    13:00 +22°C° 0 mm 5 m/S 761 mmHg 31%
    14:00 +21°C° 0 mm 5 m/S 761 mmHg 35%
    15:00 +20°C° 0 mm 5 m/S 761 mmHg 40%
    16:00 +19°C° 0 mm 5 m/S 760 mmHg 44%
    17:00 +17°C° 0 mm 5 m/S 761 mmHg 49%
    18:00 +15°C° 0 mm 4 m/S 762 mmHg 53%
    19:00 +14°C° 0 mm 3 m/S 763 mmHg 58%
    20:00 +14°C° 0 mm 3 m/S 764 mmHg 59%
    21:00 +14°C° 0 mm 2 m/S 765 mmHg 61%
    22:00 +14°C° 0 mm 2 m/S 766 mmHg 63%
    23:00 +14°C° 0.1 mm 2 m/S 765 mmHg 63%

    28 Oktober, Montag

    Zeit Temperatur Niederschläge Wind Luftdruck Luftfeuchtigkeit
    00:00 +15°C° 0.1 mm 2 m/S 765 mmHg 63%
    01:00 +15°C° 0.1 mm 1 m/S 765 mmHg 63%
    02:00 +14°C° 0.1 mm 1 m/S 766 mmHg 67%
    03:00 +14°C° 0.1 mm 1 m/S 766 mmHg 72%
    04:00 +13°C° 0.1 mm 1 m/S 766 mmHg 76%
    05:00 +14°C° 0.2 mm 1 m/S 766 mmHg 73%
    06:00 +15°C° 0.2 mm 1 m/S 766 mmHg 71%
    07:00 +16°C° 0.2 mm 1 m/S 767 mmHg 68%
    08:00 +17°C° 0.2 mm 2 m/S 767 mmHg 65%
    09:00 +18°C° 0.2 mm 3 m/S 767 mmHg 62%
    10:00 +19°C° 0.2 mm 3 m/S 767 mmHg 59%
    11:00 +19°C° 0.2 mm 4 m/S 767 mmHg 60%
    12:00 +19°C° 0.2 mm 4 m/S 767 mmHg 61%
    13:00 +17°C° 0.2 mm 5 m/S 767 mmHg 62%
    14:00 +19°C° 0 mm 5 m/S 767 mmHg 60%
    15:00 +19°C° 0 mm 5 m/S 767 mmHg 58%
    16:00 +19°C° 0 mm 4 m/S 767 mmHg 56%
    17:00 +18°C° 0 mm 4 m/S 767 mmHg 60%
    18:00 +17°C° 0 mm 4 m/S 768 mmHg 65%
    19:00 +16°C° 0 mm 3 m/S 768 mmHg 69%
    20:00 +14°C° 0 mm 3 m/S 769 mmHg 71%
    21:00 +15°C° 0 mm 2 m/S 769 mmHg 73%
    22:00 +14°C° 0 mm 2 m/S 769 mmHg 75%
    23:00 +15°C° 0 mm 2 m/S 769 mmHg 74%
    Mehr zeigen